Overview Statistics Trail Chart Weather Telemetry Raw packets
 

This is the latest recevied weather packets stored in our database for station/object N7ZAP. If no packets are shown the sender has not sent any weather packets the latest 10 day(s).

<< 90 91 92 93 94 95 96 >>
Time Temp. Humidity Pressure Rain* Wind** Luminosity Snow
1788024559 32.22° C 24% 1024 hPa 0 mm - - -
1788024258 32.78° C 23% 1024.1 hPa 0 mm - - -
1788023954 33.89° C 23% 1024.1 hPa 0 mm - - -
1788023651 33.33° C 23% 1024.1 hPa 0 mm - - -
1788023346 32.78° C 24% 1024.5 hPa 0 mm - - -
1788023045 32.22° C 25% 1024 hPa 0 mm - - -
1788022743 32.22° C 24% 1024.1 hPa 0 mm - - -
1788022442 32.78° C 24% 1024.1 hPa 0 mm - - -
1788022137 33.33° C 23% 1024.2 hPa 0 mm - - -
1788021830 33.33° C 24% 1024.1 hPa 0 mm - - -
1788021529 32.78° C 24% 1024.3 hPa 0 mm - - -
1788021223 31.67° C 26% 1024.2 hPa 0 mm - - -
1788020919 31.67° C 26% 1024.6 hPa 0 mm - - -
1788020618 32.22° C 26% 1024.5 hPa 0 mm - - -
1788020314 33.33° C 24% 1024.6 hPa 0 mm - - -
1788020011 33.33° C 24% 1024.5 hPa 0 mm - - -
1788019710 32.78° C 25% 1024.3 hPa 0 mm - - -
1788019410 32.22° C 26% 1024.2 hPa 0 mm - - -
1788019108 32.22° C 27% 1024.3 hPa 0 mm - - -
1788018815 31.67° C 27% 1024.2 hPa 0 mm - - -
1788018503 31.11° C 29% 1024.3 hPa 0 mm - - -
1788018202 30.56° C 28% 1024.3 hPa 0 mm - - -
1788017898 30.56° C 30% 1024.5 hPa 0 mm - - -
1788017594 30.56° C 29% 1024.3 hPa 0 mm - - -
1788017291 29.44° C 31% 1024.5 hPa 0 mm - - -

* Rain latest hour (hover to see other rain measurements)
** Current wind speed in m/s (hover to see current wind gust speed)